FENGYUN 4A

Last updated on Nov. 19, 2019, 4:25 a.m. UTC

1 41882U 16077A   19322.93959339 -.00000327  00000-0  00000+0 0  9993
2 41882   0.1490 290.7202 0003276 131.1652  78.6242  1.00277696 10893
UTC
Height (km)
Latitude
Longitude
Inclination
Orbital Period
UTC large
Height (km)
Speed (km/s)
/
Latitude / Longitude
Inclination (degrees)
Orbital Period (minutes)
Azimuth
Elevation
Range (km)
Doppler Factor
iOS Compass Heading
iOS Angle

Next 30 passes for location: Hong Kong

Rise time Rise Azimuth (degrees) Set time Set Azimuth (degrees) Duration Max altitude (degrees)

No matching passes for this satellites